Terug naar catalogus

ARIANE 5 DEB

SYLDA

ActiefHEO
NORAD 54744·DEBRIS·🇫🇷 France

Gelanceerd Dec 13, 2022 vanaf Guiana Space Centre

Loading…

Volgende Passages (komende 24 uur)

TLE

VersSource: Space-Track

Epoch: Sep 14, 2026, 08:47 UTC

1 54744U 22170D   26257.36659440  .00393232 -61470-6  46143-2 0  9992
2 54744   6.2752 134.4111 4849581 320.1121  12.8098  6.03180415 54333

Volg ARIANE 5 DEB in realtime met AllMySat

Download on the App Store